Tracking 30505 objects as of 23-May-2025
HD Live streaming from Space Station
objects crossing your sky now

STARLINK-5523

Track STARLINK-5523 now!
10-day predictions
STARLINK-5523 is classified as:


NORAD ID: 56470
Int'l Code: 2023-064Y
Perigee: 577.2 km
Apogee: 581.4 km
Inclination: 70.0 °
Period: 96.1 minutes
Semi major axis: 6950 km
RCS: Unknown
Launch date: May 10, 2023
Source: United States (US)
Launch site: AIR FORCE WESTERN TEST RANGE (AFWTR)
Your satellite tracking list
Your tracking list is empty




NASA's NSSDC Master Catalog

Two Line Element Set (TLE):
1 56470U 23064Y   25143.40419516  .00001496  00000-0  13325-3 0  9999
2 56470  69.9984 136.5190 0003021 263.7162  96.3653 14.98310651112618
Source of the keplerian elements: AFSPC